sat.trackr.live / text

‹ back to catalog

ONEWEB-0132

NORAD 47278 · 2020-100W

PAYLOAD ACTIVE UNKNOWN

§ Identity

Operator
Country
UK
Launch date
2020-12-18
Launch site
VOSTO
Launch vehicle
Mass (kg)
RCS (m²)

Purposes: comms

External: N2YO · Heavens-Above · Gunter

§ Orbital elements

Epoch: 2026-05-25T02:46:13.316160Z

Period
109.72 min
Inclination
87.8952°
Eccentricity
0.0001772
Mean motion
13.12441423 rev/d
Perigee alt
1,212.4 km
Apogee alt
1,215.1 km
Semi-major
7,591.9 km
B*
1.0234e-3
RAAN
355.2619°
Arg perigee
84.5375°
Mean anomaly
275.5956°
Rev number
26,155

§ Raw data

ONEWEB-01321 47278U 20100W   26145.11543190  .00000381  00000+0  10234-2 0  99962 47278  87.8952 355.2619 0001772  84.5375 275.5956 13.12441423261552

JSON: /api/v1/satellites/47278 · /tle

For live sub-satellite position, see the globe view (requires WebGL).

§ Visibility from observer

Set your observer location to see the next 7 days of passes ≥ 10°. The values pass through the URL so the page stays shareable.

No JS? Fill the form by hand. The geolocation button needs JavaScript.